QPF
0.11 0.05 0.08 0.09 0.04 0.03 0.04 0.04 0.05 0.06 0.07 0.12 0.15 0.17 0.17 0.11 0.10 0.08 0.10 0.07 0.07 0.12 0.11 0.07 0.05 0.05 0.04 0.03 0.02 0.02 0.02 0.03 0.03 0.03 0.02 0.02 0.02 0.03 0.02 0.01 0.01 0.01 0.01
0.06 0.05 0.04 0.03 0.03 0.05 0.06 0.06 0.08 0.09 0.12 0.17 0.14 0.14 0.15 0.14 0.10 0.08 0.08 0.06 0.04 0.04 0.05 0.05 0.06 0.05 0.06 0.05 0.03 0.02 0.03 0.03 0.03 0.02 0.02 0.02 0.02 0.02 0.02 0.01 0.01 0.01 0.01
0.03 0.03 0.02 0.03 0.03 0.04 0.06 0.07 0.10 0.10 0.10 0.11 0.11 0.09 0.09 0.09 0.11 0.12 0.12 0.09 0.05 0.04 0.05 0.05 0.06 0.06 0.07 0.07 0.05 0.04 0.03 0.04 0.04 0.03 0.01 0.01 0.01 0.02 0.02 0.01 0.01 0.01 0.01
0.03 0.02 0.02 0.03 0.03 0.04 0.05 0.06 0.08 0.07 0.06 0.07 0.08 0.08 0.07 0.09 0.10 0.12 0.13 0.09 0.06 0.04 0.05 0.06 0.07 0.07 0.08 0.08 0.08 0.06 0.04 0.04 0.04 0.03 0.02 0.02 0.02 0.02 0.02 0.02 0.02 0.02 0.02
0.03 0.02 0.02 0.02 0.02 0.03 0.04 0.05 0.07 0.07 0.06 0.06 0.06 0.07 0.08 0.08 0.09 0.09 0.09 0.09 0.08 0.06 0.06 0.06 0.05 0.06 0.07 0.08 0.08 0.07 0.05 0.05 0.05 0.04 0.04 0.03 0.03 0.03 0.04 0.03 0.02 0.02 0.02
0.02 0.01 0.02 0.03 0.03 0.04 0.05 0.05 0.06 0.06 0.06 0.06 0.05 0.06 0.07 0.08 0.07 0.07 0.07 0.07 0.07 0.08 0.08 0.08 0.05 0.05 0.06 0.08 0.08 0.09 0.09 0.08 0.07 0.06 0.05 0.05 0.06 0.06 0.05 0.04 0.03 0.02 0.01
0.03 0.04 0.05 0.05 0.05 0.06 0.06 0.06 0.05 0.05 0.06 0.06 0.05 0.05 0.05 0.05 0.05 0.04 0.05 0.05 0.04 0.04 0.05 0.06 0.07 0.06 0.05 0.06 0.08 0.10 0.11 0.09 0.08 0.07 0.06 0.06 0.06 0.06 0.05 0.04 0.03 0.02 0.01
0.03 0.05 0.06 0.07 0.07 0.07 0.06 0.06 0.06 0.04 0.04 0.06 0.05 0.04 0.04 0.03 0.03 0.03 0.04 0.04 0.03 0.03 0.04 0.05 0.08 0.11 0.10 0.10 0.09 0.08 0.10 0.11 0.09 0.09 0.09 0.07 0.06 0.05 0.05 0.04 0.04 0.03 0.02
0.05 0.05 0.07 0.08 0.09 0.09 0.07 0.04 0.04 0.04 0.05 0.06 0.05 0.04 0.04 0.05 0.04 0.03 0.03 0.04 0.04 0.05 0.06 0.06 0.07 0.10 0.09 0.09 0.13 0.10 0.09 0.09 0.10 0.11 0.12 0.10 0.07 0.05 0.04 0.04 0.04 0.04 0.03
0.08 0.09 0.09 0.09 0.08 0.07 0.07 0.05 0.04 0.03 0.03 0.04 0.05 0.04 0.06 0.10 0.08 0.03 0.02 0.03 0.04 0.05 0.07 0.05 0.07 0.07 0.05 0.07 0.08 0.09 0.08 0.06 0.06 0.09 0.11 0.11 0.08 0.06 0.05 0.04 0.04 0.04 0.04
0.08 0.09 0.08 0.08 0.07 0.07 0.07 0.06 0.04 0.04 0.03 0.04 0.06 0.08 0.11 0.10 0.05 0.03 0.03 0.03 0.02 0.02 0.03 0.04 0.05 0.04 0.03 0.03 0.04 0.05 0.07 0.08 0.09 0.09 0.10 0.12 0.10 0.07 0.05 0.05 0.04 0.05 0.06
0.05 0.05 0.05 0.06 0.07 0.06 0.05 0.05 0.04 0.04 0.05 0.05 0.07 0.10 0.09 0.07 0.05 0.04 0.03 0.03 0.02 0.02 0.03 0.03 0.02 0.02 0.03 0.03 0.03 0.04 0.05 0.06 0.06 0.07 0.11 0.10 0.07 0.05 0.04 0.04 0.04 0.05 0.05
0.03 0.03 0.04 0.04 0.04 0.02 0.02 0.02 0.03 0.02 0.03 0.04 0.05 0.05 0.04 0.05 0.06 0.06 0.04 0.03 0.02 0.02 0.02 0.02 0.03 0.02 0.03 0.04 0.04 0.05 0.06 0.06 0.05 0.06 0.07 0.07 0.05 0.04 0.02 0.02 0.03 0.03 0.04
0.01 0.01 0.01 0.02 0.02 0.01 0.01 0.01 0.02 0.03 0.02 0.02 0.02 0.03 0.03 0.03 0.04 0.05 0.04 0.03 0.02 0.02 0.03 0.03 0.02 0.03 0.03 0.04 0.05 0.07 0.06 0.06 0.05 0.06 0.07 0.07 0.05 0.03 0.01 0.01 0.01 0.02 0.03
0.01 0.01 0.01 0.02 0.02 0.01 0.02 0.03 0.02 0.01 0.01 0.01 0.01 0.01 0.01 0.01 0.03 0.06 0.06 0.06 0.05 0.03 0.02 0.02 0.02 0.03 0.04 0.05 0.08 0.09 0.08 0.09 0.08 0.09 0.08 0.07 0.05 0.05 0.04 0.03 0.02 0.02 0.02
0.01 0.01 0.02 0.02 0.02 0.01 0.02 0.03 0.02 0.02 0.01 0.01 0.02 0.01 0.01 0.01 0.02 0.03 0.04 0.05 0.04 0.04 0.02 0.01 0.01 0.02 0.04 0.05 0.08 0.10 0.11 0.10 0.09 0.08 0.07 0.07 0.06 0.05 0.04 0.03 0.02 0.02 0.02
0.03 0.03 0.03 0.03 0.02 0.01 0.01 0.02 0.03 0.03 0.02 0.02 0.01 0.01 0.01 0.04 0.03 0.03 0.03 0.03 0.03 0.04 0.02 0.01 0.02 0.02 0.02 0.03 0.04 0.07 0.10 0.08 0.05 0.05 0.06 0.07 0.06 0.04 0.02 0.02 0.02 0.01 0.01
0.04 0.03 0.03 0.03 0.03 0.01 0.01 0.02 0.03 0.03 0.03 0.02 0.03 0.02 0.02 0.03 0.03 0.02 0.02 0.03 0.04 0.04 0.04 0.02 0.02 0.03 0.02 0.02 0.02 0.03 0.06 0.06 0.04 0.04 0.05 0.07 0.06 0.04 0.03 0.02 0.01 0.01 0.01
0.03 0.03 0.03 0.03 0.02 0.01 0.01 0.02 0.04 0.04 0.03 0.02 0.02 0.02 0.01 0.02 0.02 0.02 0.03 0.03 0.04 0.06 0.06 0.05 0.04 0.03 0.03 0.04 0.03 0.02 0.05 0.06 0.05 0.06 0.06 0.07 0.07 0.05 0.04 0.03 0.03 0.02 0.02
0.03 0.03 0.03 0.02 0.02 0.02 0.02 0.03 0.04 0.04 0.03 0.03 0.02 0.01 0.01 0.02 0.02 0.03 0.04 0.04 0.05 0.06 0.07 0.07 0.06 0.05 0.04 0.04 0.04 0.04 0.05 0.07 0.08 0.07 0.07 0.05 0.05 0.05 0.05 0.04 0.03 0.02 0.02
0.03 0.03 0.02 0.03 0.05 0.04 0.03 0.04 0.05 0.04 0.04 0.02 0.02 0.02 0.03 0.03 0.04 0.06 0.05 0.04 0.05 0.06 0.06 0.06 0.05 0.05 0.05 0.04 0.04 0.04 0.04 0.04 0.05 0.06 0.07 0.06 0.04 0.04 0.04 0.04 0.04 0.05 0.04
0.05 0.06 0.07 0.06 0.05 0.04 0.04 0.06 0.06 0.06 0.04 0.03 0.03 0.03 0.04 0.04 0.05 0.05 0.04 0.03 0.04 0.04 0.04 0.04 0.04 0.04 0.03 0.04 0.04 0.04 0.03 0.03 0.05 0.05 0.05 0.04 0.03 0.03 0.03 0.03 0.04 0.04 0.04
0.09 0.09 0.08 0.07 0.06 0.05 0.06 0.05 0.06 0.05 0.04 0.03 0.04 0.04 0.03 0.03 0.03 0.03 0.04 0.04 0.04 0.04 0.03 0.02 0.02 0.02 0.03 0.04 0.04 0.03 0.02 0.02 0.03 0.03 0.03 0.03 0.02 0.02 0.02 0.01 0.02 0.02 0.02
0.12 0.11 0.08 0.06 0.05 0.05 0.06 0.06 0.05 0.05 0.05 0.05 0.04 0.04 0.05 0.05 0.04 0.05 0.04 0.04 0.03 0.03 0.03 0.02 0.02 0.01 0.01 0.02 0.03 0.03 0.04 0.03 0.04 0.05 0.04 0.03 0.02 0.02 0.02 0.02 0.02 0.02 0.02
0.13 0.12 0.10 0.07 0.06 0.05 0.05 0.05 0.05 0.05 0.05 0.05 0.06 0.07 0.08 0.07 0.06 0.06 0.04 0.04 0.03 0.02 0.03 0.03 0.03 0.02 0.02 0.02 0.02 0.03 0.04 0.04 0.03 0.04 0.04 0.04 0.03 0.03 0.03 0.03 0.03 0.04 0.03
0.16 0.14 0.10 0.08 0.07 0.06 0.06 0.07 0.07 0.07 0.07 0.07 0.06 0.06 0.07 0.07 0.07 0.07 0.05 0.04 0.04 0.03 0.04 0.03 0.03 0.02 0.02 0.01 0.01 0.01 0.02 0.02 0.02 0.02 0.03 0.04 0.03 0.04 0.04 0.03 0.03 0.02 0.03
MSLP
1016.94 1017.18 1017.31 1017.38 1017.40 1017.40 1017.42 1017.48 1017.56 1017.69 1017.83 1018.00 1018.19 1018.38 1018.59 1018.82 1019.07 1019.32 1019.58 1019.83 1020.05 1020.24 1020.40 1020.52 1020.63 1020.71 1020.79 1020.86 1020.94 1021.01 1021.09 1021.17 1021.26 1021.37 1021.49 1021.64 1021.81 1021.98 1022.14 1022.28 1022.37 1022.40 1022.37
1016.96 1017.21 1017.37 1017.46 1017.50 1017.51 1017.54 1017.58 1017.66 1017.77 1017.92 1018.08 1018.26 1018.45 1018.64 1018.84 1019.04 1019.24 1019.45 1019.65 1019.86 1020.05 1020.24 1020.40 1020.56 1020.69 1020.80 1020.89 1020.95 1021.00 1021.03 1021.07 1021.13 1021.22 1021.34 1021.50 1021.69 1021.89 1022.08 1022.22 1022.31 1022.33 1022.29
1016.82 1017.09 1017.30 1017.44 1017.54 1017.60 1017.67 1017.74 1017.84 1017.96 1018.10 1018.26 1018.42 1018.58 1018.73 1018.86 1018.99 1019.11 1019.24 1019.38 1019.54 1019.71 1019.90 1020.11 1020.30 1020.49 1020.64 1020.76 1020.83 1020.87 1020.89 1020.90 1020.93 1021.00 1021.12 1021.28 1021.48 1021.68 1021.88 1022.02 1022.11 1022.12 1022.07
1016.54 1016.84 1017.10 1017.32 1017.50 1017.65 1017.79 1017.92 1018.06 1018.20 1018.35 1018.50 1018.64 1018.76 1018.85 1018.91 1018.95 1018.97 1019.00 1019.05 1019.14 1019.27 1019.45 1019.66 1019.89 1020.11 1020.31 1020.46 1020.56 1020.61 1020.63 1020.64 1020.66 1020.71 1020.81 1020.96 1021.15 1021.35 1021.53 1021.67 1021.75 1021.76 1021.71
1016.21 1016.52 1016.83 1017.13 1017.40 1017.64 1017.86 1018.06 1018.25 1018.43 1018.60 1018.75 1018.87 1018.95 1018.99 1018.98 1018.93 1018.86 1018.79 1018.74 1018.74 1018.80 1018.93 1019.12 1019.36 1019.60 1019.82 1020.01 1020.14 1020.22 1020.26 1020.27 1020.29 1020.34 1020.44 1020.57 1020.74 1020.91 1021.07 1021.19 1021.25 1021.26 1021.23
1015.88 1016.19 1016.53 1016.89 1017.23 1017.56 1017.86 1018.13 1018.37 1018.58 1018.77 1018.94 1019.06 1019.13 1019.13 1019.08 1018.97 1018.82 1018.65 1018.51 1018.41 1018.39 1018.45 1018.58 1018.78 1019.01 1019.24 1019.44 1019.60 1019.70 1019.77 1019.82 1019.86 1019.92 1020.01 1020.13 1020.27 1020.41 1020.53 1020.62 1020.67 1020.68 1020.66
1015.63 1015.91 1016.25 1016.63 1017.02 1017.40 1017.75 1018.07 1018.36 1018.61 1018.83 1019.02 1019.16 1019.25 1019.26 1019.20 1019.06 1018.87 1018.64 1018.41 1018.22 1018.10 1018.06 1018.10 1018.23 1018.40 1018.60 1018.79 1018.96 1019.10 1019.20 1019.28 1019.36 1019.44 1019.55 1019.66 1019.78 1019.89 1019.98 1020.05 1020.07 1020.08 1020.08
1015.47 1015.70 1016.01 1016.38 1016.78 1017.17 1017.54 1017.89 1018.20 1018.49 1018.74 1018.97 1019.15 1019.29 1019.34 1019.32 1019.20 1019.00 1018.75 1018.46 1018.19 1017.96 1017.80 1017.73 1017.75 1017.83 1017.96 1018.12 1018.28 1018.43 1018.57 1018.70 1018.82 1018.94 1019.07 1019.20 1019.31 1019.40 1019.47 1019.50 1019.51 1019.52 1019.53
1015.41 1015.57 1015.82 1016.15 1016.51 1016.88 1017.24 1017.58 1017.90 1018.20 1018.49 1018.77 1019.01 1019.22 1019.35 1019.40 1019.35 1019.18 1018.93 1018.62 1018.28 1017.96 1017.69 1017.48 1017.36 1017.33 1017.36 1017.45 1017.58 1017.73 1017.90 1018.07 1018.25 1018.42 1018.59 1018.75 1018.87 1018.96 1019.01 1019.03 1019.03 1019.03 1019.05
1015.36 1015.46 1015.65 1015.91 1016.22 1016.54 1016.86 1017.17 1017.48 1017.79 1018.10 1018.42 1018.73 1019.02 1019.25 1019.40 1019.43 1019.34 1019.12 1018.81 1018.44 1018.04 1017.66 1017.32 1017.07 1016.90 1016.82 1016.83 1016.90 1017.03 1017.21 1017.42 1017.65 1017.88 1018.10 1018.30 1018.45 1018.56 1018.62 1018.64 1018.63 1018.63 1018.66
1015.25 1015.30 1015.44 1015.64 1015.88 1016.15 1016.42 1016.69 1016.97 1017.27 1017.59 1017.95 1018.33 1018.69 1019.02 1019.26 1019.40 1019.39 1019.23 1018.95 1018.57 1018.12 1017.65 1017.22 1016.84 1016.54 1016.35 1016.26 1016.26 1016.36 1016.53 1016.76 1017.03 1017.32 1017.60 1017.84 1018.04 1018.18 1018.27 1018.30 1018.31 1018.32 1018.36
1014.99 1015.02 1015.13 1015.29 1015.49 1015.70 1015.93 1016.16 1016.41 1016.69 1017.02 1017.39 1017.81 1018.23 1018.64 1018.97 1019.19 1019.27 1019.19 1018.96 1018.59 1018.13 1017.63 1017.11 1016.64 1016.25 1015.95 1015.77 1015.70 1015.75 1015.90 1016.13 1016.42 1016.74 1017.07 1017.36 1017.61 1017.80 1017.93 1018.00 1018.04 1018.07 1018.12
1014.51 1014.57 1014.68 1014.83 1015.01 1015.20 1015.40 1015.60 1015.82 1016.09 1016.40 1016.78 1017.21 1017.66 1018.11 1018.51 1018.81 1018.96 1018.96 1018.79 1018.48 1018.04 1017.54 1017.00 1016.48 1016.02 1015.65 1015.39 1015.25 1015.24 1015.35 1015.55 1015.84 1016.17 1016.53 1016.86 1017.16 1017.41 1017.59 1017.71 1017.78 1017.85 1017.92
1013.81 1013.91 1014.06 1014.24 1014.44 1014.64 1014.84 1015.03 1015.24 1015.48 1015.77 1016.13 1016.55 1017.01 1017.47 1017.90 1018.24 1018.46 1018.53 1018.45 1018.21 1017.84 1017.38 1016.87 1016.35 1015.87 1015.46 1015.14 1014.94 1014.86 1014.91 1015.07 1015.32 1015.64 1016.00 1016.36 1016.69 1016.99 1017.22 1017.40 1017.52 1017.62 1017.71
1012.91 1013.09 1013.30 1013.54 1013.78 1014.02 1014.24 1014.44 1014.65 1014.88 1015.15 1015.48 1015.87 1016.30 1016.75 1017.18 1017.55 1017.82 1017.96 1017.95 1017.80 1017.53 1017.16 1016.72 1016.25 1015.79 1015.38 1015.03 1014.78 1014.64 1014.62 1014.71 1014.90 1015.17 1015.51 1015.86 1016.22 1016.54 1016.83 1017.05 1017.23 1017.37 1017.49
1011.89 1012.13 1012.42 1012.74 1013.05 1013.34 1013.60 1013.83 1014.05 1014.27 1014.53 1014.82 1015.17 1015.57 1015.98 1016.40 1016.77 1017.07 1017.27 1017.35 1017.31 1017.15 1016.90 1016.56 1016.18 1015.78 1015.40 1015.05 1014.77 1014.57 1014.47 1014.48 1014.59 1014.79 1015.07 1015.40 1015.74 1016.09 1016.40 1016.67 1016.89 1017.07 1017.22
1010.82 1011.13 1011.48 1011.86 1012.24 1012.59 1012.90 1013.18 1013.42 1013.65 1013.89 1014.16 1014.47 1014.82 1015.20 1015.59 1015.96 1016.28 1016.52 1016.68 1016.75 1016.71 1016.58 1016.37 1016.11 1015.79 1015.46 1015.14 1014.85 1014.60 1014.44 1014.36 1014.38 1014.49 1014.70 1014.97 1015.29 1015.62 1015.94 1016.24 1016.50 1016.71 1016.89
1009.78 1010.12 1010.52 1010.95 1011.38 1011.78 1012.14 1012.45 1012.72 1012.96 1013.20 1013.46 1013.74 1014.06 1014.41 1014.77 1015.13 1015.46 1015.75 1015.97 1016.13 1016.20 1016.20 1016.11 1015.96 1015.75 1015.49 1015.21 1014.93 1014.66 1014.44 1014.29 1014.22 1014.25 1014.37 1014.57 1014.84 1015.14 1015.45 1015.76 1016.03 1016.27 1016.48
1008.81 1009.16 1009.57 1010.02 1010.47 1010.90 1011.29 1011.63 1011.92 1012.19 1012.44 1012.70 1012.97 1013.28 1013.61 1013.95 1014.30 1014.63 1014.94 1015.22 1015.44 1015.60 1015.69 1015.72 1015.68 1015.57 1015.39 1015.17 1014.92 1014.65 1014.41 1014.21 1014.07 1014.02 1014.06 1014.19 1014.39 1014.65 1014.93 1015.22 1015.50 1015.75 1015.98
1007.93 1008.25 1008.65 1009.08 1009.53 1009.96 1010.35 1010.71 1011.02 1011.31 1011.59 1011.86 1012.15 1012.45 1012.78 1013.11 1013.45 1013.79 1014.10 1014.40 1014.65 1014.87 1015.03 1015.14 1015.19 1015.17 1015.08 1014.93 1014.73 1014.50 1014.26 1014.05 1013.88 1013.77 1013.75 1013.81 1013.94 1014.14 1014.38 1014.64 1014.91 1015.17 1015.41
1007.13 1007.41 1007.76 1008.15 1008.56 1008.96 1009.35 1009.70 1010.03 1010.34 1010.64 1010.94 1011.26 1011.58 1011.91 1012.25 1012.58 1012.91 1013.22 1013.50 1013.76 1014.00 1014.20 1014.36 1014.47 1014.52 1014.51 1014.44 1014.32 1014.15 1013.96 1013.76 1013.59 1013.47 1013.41 1013.42 1013.50 1013.64 1013.83 1014.05 1014.30 1014.55 1014.80
1006.40 1006.62 1006.91 1007.25 1007.60 1007.96 1008.31 1008.65 1008.98 1009.31 1009.64 1009.98 1010.33 1010.68 1011.03 1011.37 1011.70 1012.01 1012.29 1012.55 1012.79 1013.00 1013.20 1013.38 1013.52 1013.64 1013.70 1013.72 1013.68 1013.61 1013.49 1013.36 1013.23 1013.13 1013.06 1013.04 1013.08 1013.17 1013.31 1013.49 1013.70 1013.94 1014.20
1005.75 1005.92 1006.15 1006.41 1006.70 1007.00 1007.31 1007.63 1007.95 1008.29 1008.64 1009.01 1009.40 1009.78 1010.15 1010.51 1010.83 1011.11 1011.35 1011.57 1011.76 1011.94 1012.11 1012.28 1012.44 1012.60 1012.73 1012.83 1012.90 1012.93 1012.92 1012.88 1012.82 1012.76 1012.71 1012.69 1012.71 1012.76 1012.86 1013.00 1013.18 1013.39 1013.64
1005.20 1005.34 1005.51 1005.71 1005.93 1006.17 1006.43 1006.71 1007.01 1007.35 1007.72 1008.11 1008.53 1008.94 1009.33 1009.69 1010.00 1010.26 1010.46 1010.63 1010.76 1010.89 1011.02 1011.17 1011.33 1011.52 1011.71 1011.89 1012.06 1012.20 1012.30 1012.37 1012.41 1012.42 1012.41 1012.41 1012.42 1012.45 1012.52 1012.62 1012.77 1012.96 1013.20
1004.80 1004.91 1005.04 1005.19 1005.35 1005.52 1005.72 1005.96 1006.23 1006.56 1006.93 1007.33 1007.76 1008.19 1008.60 1008.96 1009.26 1009.50 1009.67 1009.79 1009.88 1009.96 1010.05 1010.17 1010.33 1010.53 1010.77 1011.03 1011.28 1011.53 1011.74 1011.91 1012.04 1012.13 1012.18 1012.21 1012.23 1012.25 1012.30 1012.37 1012.49 1012.66 1012.88
1004.56 1004.67 1004.77 1004.88 1004.98 1005.10 1005.24 1005.42 1005.66 1005.95 1006.30 1006.70 1007.13 1007.56 1007.98 1008.34 1008.64 1008.86 1009.01 1009.10 1009.16 1009.20 1009.27 1009.37 1009.53 1009.74 1010.01 1010.33 1010.65 1010.98 1011.28 1011.54 1011.75 1011.91 1012.01 1012.08 1012.12 1012.15 1012.18 1012.24 1012.34 1012.48 1012.68
Thickness
5770 5769 5768 5768 5768 5767 5767 5766 5766 5766 5766 5766 5765 5764 5763 5761 5759 5758 5756 5755 5753 5751 5750 5749 5747 5746 5744 5742 5741 5739 5737 5735 5733 5732 5730 5729 5728 5727 5726 5725 5723 5722 5721
5771 5770 5769 5768 5768 5767 5767 5766 5766 5766 5765 5765 5764 5764 5763 5761 5759 5757 5756 5754 5753 5752 5750 5749 5748 5746 5745 5743 5741 5739 5737 5735 5733 5732 5730 5729 5728 5727 5726 5724 5723 5722 5721
5772 5771 5770 5769 5768 5767 5767 5766 5766 5765 5764 5764 5763 5763 5762 5760 5759 5757 5756 5754 5753 5751 5751 5749 5748 5747 5745 5743 5742 5740 5738 5736 5734 5732 5731 5729 5728 5726 5725 5725 5724 5722 5721
5773 5772 5770 5769 5768 5768 5767 5766 5765 5763 5762 5761 5761 5761 5760 5759 5759 5757 5755 5754 5752 5751 5750 5749 5748 5746 5745 5744 5742 5740 5739 5737 5735 5733 5731 5730 5728 5727 5725 5724 5723 5722 5721
5773 5772 5770 5769 5768 5767 5766 5765 5763 5762 5760 5759 5759 5759 5759 5758 5757 5756 5755 5753 5752 5751 5750 5749 5747 5746 5745 5744 5743 5741 5740 5738 5736 5734 5732 5730 5729 5727 5726 5724 5723 5722 5721
5774 5772 5771 5769 5768 5766 5764 5763 5761 5761 5759 5758 5758 5757 5756 5756 5756 5755 5754 5753 5751 5750 5749 5748 5747 5746 5745 5744 5743 5741 5740 5739 5737 5735 5733 5731 5729 5728 5726 5725 5723 5722 5721
5774 5772 5770 5769 5767 5764 5763 5762 5760 5758 5756 5756 5753 5750 5752 5754 5754 5754 5754 5753 5752 5751 5749 5748 5747 5745 5744 5743 5743 5742 5741 5739 5738 5736 5734 5732 5730 5728 5727 5725 5723 5722 5721
5774 5772 5770 5768 5766 5764 5762 5760 5758 5755 5754 5755 5750 5744 5740 5743 5749 5754 5753 5752 5751 5750 5749 5748 5747 5745 5743 5743 5743 5742 5741 5740 5738 5737 5735 5733 5731 5729 5727 5725 5724 5722 5721
5774 5772 5770 5768 5765 5763 5760 5759 5758 5755 5751 5752 5751 5745 5737 5733 5739 5746 5750 5750 5750 5749 5748 5747 5746 5744 5743 5742 5742 5742 5741 5739 5738 5737 5735 5734 5732 5730 5727 5725 5724 5722 5720
5774 5772 5770 5768 5765 5763 5761 5760 5759 5756 5753 5748 5749 5749 5747 5743 5736 5735 5742 5745 5747 5746 5746 5745 5745 5744 5743 5743 5742 5742 5741 5739 5738 5737 5735 5733 5731 5729 5728 5726 5724 5722 5720
5775 5773 5771 5768 5765 5763 5762 5761 5759 5757 5754 5751 5748 5747 5745 5743 5741 5734 5732 5737 5740 5743 5744 5744 5743 5743 5743 5742 5742 5741 5740 5739 5737 5736 5734 5732 5730 5729 5727 5725 5723 5721 5719
5774 5773 5771 5769 5766 5764 5763 5761 5760 5758 5755 5753 5750 5748 5745 5741 5739 5736 5732 5732 5733 5738 5741 5742 5741 5742 5741 5741 5740 5739 5738 5737 5736 5734 5732 5730 5729 5727 5725 5723 5722 5720 5718
5772 5772 5772 5769 5767 5765 5763 5762 5759 5757 5755 5752 5750 5748 5747 5745 5743 5739 5733 5731 5730 5733 5737 5738 5740 5740 5739 5739 5738 5737 5736 5735 5734 5732 5730 5728 5726 5725 5723 5721 5719 5717 5715
5773 5773 5772 5770 5767 5765 5763 5761 5758 5756 5755 5752 5751 5749 5747 5746 5744 5740 5736 5731 5726 5727 5729 5732 5736 5737 5736 5736 5735 5734 5733 5732 5731 5729 5726 5725 5723 5721 5719 5718 5716 5714 5712
5775 5773 5771 5769 5767 5765 5763 5760 5756 5754 5753 5751 5749 5748 5746 5745 5743 5741 5738 5734 5726 5720 5721 5727 5729 5733 5733 5732 5731 5731 5729 5728 5727 5725 5723 5721 5719 5717 5716 5714 5712 5710 5708
5775 5772 5770 5768 5765 5763 5761 5758 5755 5753 5751 5749 5748 5745 5744 5743 5741 5739 5737 5734 5730 5724 5720 5725 5726 5728 5729 5728 5727 5726 5725 5724 5722 5721 5719 5717 5715 5714 5711 5709 5708 5706 5704
5773 5770 5768 5765 5763 5760 5758 5755 5752 5751 5748 5747 5745 5743 5741 5740 5738 5736 5734 5731 5727 5724 5719 5722 5723 5724 5723 5722 5722 5721 5720 5719 5717 5716 5714 5713 5711 5709 5707 5705 5704 5702 5700
5770 5768 5765 5763 5760 5758 5756 5753 5750 5748 5746 5743 5742 5740 5738 5738 5735 5732 5730 5727 5724 5723 5718 5715 5717 5717 5717 5716 5716 5715 5715 5714 5712 5711 5709 5708 5706 5704 5702 5700 5699 5697 5695
5766 5764 5762 5760 5758 5755 5753 5751 5748 5746 5743 5742 5740 5737 5735 5733 5730 5728 5726 5723 5721 5720 5716 5712 5711 5711 5710 5710 5709 5709 5708 5707 5706 5705 5703 5702 5700 5699 5697 5695 5693 5691 5689
5763 5761 5759 5757 5755 5753 5750 5748 5745 5742 5740 5739 5737 5735 5733 5730 5727 5724 5722 5719 5716 5713 5710 5706 5705 5704 5703 5703 5701 5699 5698 5698 5697 5698 5696 5695 5694 5692 5690 5688 5687 5685 5683
5760 5758 5755 5752 5750 5748 5747 5744 5742 5739 5736 5734 5732 5730 5729 5727 5724 5721 5718 5714 5711 5706 5703 5700 5697 5696 5694 5693 5692 5692 5690 5689 5689 5689 5687 5687 5686 5685 5683 5682 5681 5679 5677
5755 5752 5749 5746 5744 5744 5743 5741 5738 5734 5732 5729 5726 5724 5723 5720 5719 5716 5713 5710 5706 5701 5697 5694 5692 5689 5688 5687 5686 5685 5682 5680 5679 5681 5679 5678 5678 5677 5676 5675 5675 5674 5672
5748 5745 5743 5740 5738 5738 5737 5735 5733 5729 5726 5724 5721 5718 5717 5715 5711 5708 5705 5703 5700 5698 5696 5692 5688 5686 5684 5683 5680 5677 5676 5674 5672 5673 5671 5669 5670 5668 5669 5669 5668 5667 5666
5742 5739 5736 5734 5732 5731 5731 5729 5727 5723 5720 5718 5715 5713 5709 5706 5704 5700 5697 5693 5691 5689 5688 5686 5684 5682 5680 5678 5676 5673 5670 5668 5667 5667 5665 5661 5661 5660 5662 5662 5662 5661 5660
5734 5732 5730 5727 5725 5724 5723 5722 5719 5715 5712 5710 5708 5705 5702 5699 5697 5693 5688 5684 5681 5680 5680 5678 5677 5675 5673 5671 5669 5665 5662 5659 5657 5657 5658 5655 5653 5652 5652 5653 5654 5654 5653
5727 5725 5722 5720 5718 5717 5716 5714 5712 5708 5704 5701 5699 5696 5694 5692 5689 5685 5680 5676 5672 5671 5670 5669 5667 5666 5665 5663 5661 5659 5656 5651 5649 5648 5650 5647 5645 5643 5642 5644 5645 5645 5645